Year,Month,Day,Hour,Minute,Value (Times are PST for temperature in C)
2015,11,19,00,00,4.70
2015,11,19,00,01,4.70
2015,11,19,00,02,4.70
2015,11,19,00,03,4.70
2015,11,19,00,04,4.70
2015,11,19,00,05,4.70
2015,11,19,00,06,4.70
2015,11,19,00,07,4.70
2015,11,19,00,08,4.60
2015,11,19,00,09,4.60
2015,11,19,00,10,4.60
2015,11,19,00,11,4.60
2015,11,19,00,12,4.60
2015,11,19,00,13,4.60
2015,11,19,00,14,4.60
2015,11,19,00,15,4.60
2015,11,19,00,16,4.50
2015,11,19,00,17,4.50
2015,11,19,00,18,4.50
2015,11,19,00,19,4.50
2015,11,19,00,20,4.50
2015,11,19,00,21,4.50
2015,11,19,00,22,4.50
2015,11,19,00,23,4.50
2015,11,19,00,24,4.50
2015,11,19,00,25,4.40
2015,11,19,00,26,4.40
2015,11,19,00,27,4.40
2015,11,19,00,28,4.40
2015,11,19,00,29,4.40
2015,11,19,00,30,4.40
2015,11,19,00,31,4.40
2015,11,19,00,32,4.30
2015,11,19,00,33,4.30
2015,11,19,00,34,4.30
2015,11,19,00,35,4.30
2015,11,19,00,36,4.30
2015,11,19,00,37,4.30
2015,11,19,00,38,4.30
2015,11,19,00,39,4.20
2015,11,19,00,40,4.20
2015,11,19,00,41,4.20
2015,11,19,00,42,4.20
2015,11,19,00,43,4.20
2015,11,19,00,44,4.20
2015,11,19,00,45,4.20
2015,11,19,00,46,4.20
2015,11,19,00,47,4.20
2015,11,19,00,48,4.20
2015,11,19,00,49,4.10
2015,11,19,00,50,4.10
2015,11,19,00,51,4.10
2015,11,19,00,52,4.10
2015,11,19,00,53,4.10
2015,11,19,00,54,4.10
2015,11,19,00,55,4.10
2015,11,19,00,56,4.10
2015,11,19,00,57,4.10
2015,11,19,00,58,4.10
2015,11,19,00,59,4.10
2015,11,19,01,00,4.10
2015,11,19,01,01,4.10
2015,11,19,01,02,4.10
2015,11,19,01,03,4.10
2015,11,19,01,04,4.10
2015,11,19,01,05,4.10
2015,11,19,01,06,4.10
2015,11,19,01,07,4.10
2015,11,19,01,08,4.10
2015,11,19,01,09,4.10
2015,11,19,01,10,4.10
2015,11,19,01,11,4.10
2015,11,19,01,12,4.10
2015,11,19,01,13,4.10
2015,11,19,01,14,4.10
2015,11,19,01,15,4.10
2015,11,19,01,16,4.10
2015,11,19,01,17,4.10
2015,11,19,01,18,4.10
2015,11,19,01,19,4.00
2015,11,19,01,20,4.00
2015,11,19,01,21,4.00
2015,11,19,01,22,4.00
2015,11,19,01,23,4.00
2015,11,19,01,24,3.90
2015,11,19,01,25,3.90
2015,11,19,01,26,3.90
2015,11,19,01,27,3.90
2015,11,19,01,28,3.90
2015,11,19,01,29,3.80
2015,11,19,01,30,3.80
2015,11,19,01,31,3.80
2015,11,19,01,32,3.80
2015,11,19,01,33,3.80
2015,11,19,01,34,3.80
2015,11,19,01,35,3.70
2015,11,19,01,36,3.70
2015,11,19,01,37,3.70
2015,11,19,01,38,3.70
2015,11,19,01,39,3.70
2015,11,19,01,40,3.70
2015,11,19,01,41,3.60
2015,11,19,01,42,3.60
2015,11,19,01,43,3.60
2015,11,19,01,44,3.60
2015,11,19,01,45,3.60
2015,11,19,01,46,3.60
2015,11,19,01,47,3.60
2015,11,19,01,48,3.60
2015,11,19,01,49,3.60
2015,11,19,01,50,3.60
2015,11,19,01,51,3.50
2015,11,19,01,52,3.50
2015,11,19,01,53,3.50
2015,11,19,01,54,3.50
2015,11,19,01,55,3.40
2015,11,19,01,56,3.40
2015,11,19,01,57,3.40
2015,11,19,01,58,3.40
2015,11,19,01,59,3.40
2015,11,19,02,00,3.30
2015,11,19,02,01,3.30
2015,11,19,02,02,3.30
2015,11,19,02,03,3.30
2015,11,19,02,04,3.30
2015,11,19,02,05,3.30
2015,11,19,02,06,3.20
2015,11,19,02,07,3.20
2015,11,19,02,08,3.20
2015,11,19,02,09,3.20
2015,11,19,02,10,3.20
2015,11,19,02,11,3.20
2015,11,19,02,12,3.20
2015,11,19,02,13,3.10
2015,11,19,02,14,3.10
2015,11,19,02,15,3.10
2015,11,19,02,16,3.10
2015,11,19,02,17,3.10
2015,11,19,02,18,3.10
2015,11,19,02,19,3.10
2015,11,19,02,20,3.00
2015,11,19,02,21,3.00
2015,11,19,02,22,3.00
2015,11,19,02,23,3.00
2015,11,19,02,24,2.90
2015,11,19,02,25,2.90
2015,11,19,02,26,2.90
2015,11,19,02,27,2.90
2015,11,19,02,28,2.80
2015,11,19,02,29,2.80
2015,11,19,02,30,2.80
2015,11,19,02,31,2.80
2015,11,19,02,32,2.80
2015,11,19,02,33,2.70
2015,11,19,02,34,2.70
2015,11,19,02,35,2.70
2015,11,19,02,36,2.70
2015,11,19,02,37,2.60
2015,11,19,02,38,2.60
2015,11,19,02,39,2.60
2015,11,19,02,40,2.60
2015,11,19,02,41,2.60
2015,11,19,02,42,2.60
2015,11,19,02,43,2.60
2015,11,19,02,44,2.60
2015,11,19,02,45,2.60
2015,11,19,02,46,2.50
2015,11,19,02,47,2.50
2015,11,19,02,48,2.50
2015,11,19,02,49,2.50
2015,11,19,02,50,2.50
2015,11,19,02,51,2.40
2015,11,19,02,52,2.40
2015,11,19,02,53,2.40
2015,11,19,02,54,2.40
2015,11,19,02,55,2.40
2015,11,19,02,56,2.40
2015,11,19,02,57,2.40
2015,11,19,02,58,2.40
2015,11,19,02,59,2.40
2015,11,19,03,00,2.40
2015,11,19,03,01,2.50
2015,11,19,03,02,2.50
2015,11,19,03,03,2.50
2015,11,19,03,04,2.50
2015,11,19,03,05,2.50
2015,11,19,03,06,2.50
2015,11,19,03,07,2.50
2015,11,19,03,08,2.50
2015,11,19,03,09,2.50
2015,11,19,03,10,2.50
2015,11,19,03,11,2.50
2015,11,19,03,12,2.50
2015,11,19,03,13,2.50
2015,11,19,03,14,2.50
2015,11,19,03,15,2.50
2015,11,19,03,16,2.50
2015,11,19,03,17,2.50
2015,11,19,03,18,2.40
2015,11,19,03,19,2.40
2015,11,19,03,20,2.40
2015,11,19,03,21,2.40
2015,11,19,03,22,2.40
2015,11,19,03,23,2.40
2015,11,19,03,24,2.40
2015,11,19,03,25,2.40
2015,11,19,03,26,2.40
2015,11,19,03,27,2.40
2015,11,19,03,28,2.40
2015,11,19,03,29,2.40
2015,11,19,03,30,2.30
2015,11,19,03,31,2.30
2015,11,19,03,32,2.30
2015,11,19,03,33,2.30
2015,11,19,03,34,2.30
2015,11,19,03,35,2.30
2015,11,19,03,36,2.30
2015,11,19,03,37,2.20
2015,11,19,03,38,2.20
2015,11,19,03,39,2.20
2015,11,19,03,40,2.20
2015,11,19,03,41,2.20
2015,11,19,03,42,2.20
2015,11,19,03,43,2.20
2015,11,19,03,44,2.20
2015,11,19,03,45,2.20
2015,11,19,03,46,2.30
2015,11,19,03,47,2.30
2015,11,19,03,48,2.30
2015,11,19,03,49,2.30
2015,11,19,03,50,2.30
2015,11,19,03,51,2.30
2015,11,19,03,52,2.30
2015,11,19,03,53,2.30
2015,11,19,03,54,2.30
2015,11,19,03,55,2.30
2015,11,19,03,56,2.20
2015,11,19,03,57,2.20
2015,11,19,03,58,2.20
2015,11,19,03,59,2.20
2015,11,19,04,00,2.20
2015,11,19,04,01,2.20
2015,11,19,04,02,2.20
2015,11,19,04,03,2.20
2015,11,19,04,04,2.10
2015,11,19,04,05,2.10
2015,11,19,04,06,2.10
2015,11,19,04,07,2.10
2015,11,19,04,08,2.10
2015,11,19,04,09,2.00
2015,11,19,04,10,2.00
2015,11,19,04,11,2.00
2015,11,19,04,12,2.00
2015,11,19,04,13,2.00
2015,11,19,04,14,2.00
2015,11,19,04,15,2.00
2015,11,19,04,16,1.90
2015,11,19,04,17,1.90
2015,11,19,04,18,1.90
2015,11,19,04,19,1.90
2015,11,19,04,20,1.90
2015,11,19,04,21,1.90
2015,11,19,04,22,1.80
2015,11,19,04,23,1.80
2015,11,19,04,24,1.80
2015,11,19,04,25,1.80
2015,11,19,04,26,1.80
2015,11,19,04,27,1.70
2015,11,19,04,28,1.70
2015,11,19,04,29,1.70
2015,11,19,04,30,1.70
2015,11,19,04,31,1.70
2015,11,19,04,32,1.80
2015,11,19,04,33,1.80
2015,11,19,04,34,1.80
2015,11,19,04,35,1.80
2015,11,19,04,36,1.80
2015,11,19,04,37,1.80
2015,11,19,04,38,1.80
2015,11,19,04,39,1.80
2015,11,19,04,40,1.80
2015,11,19,04,41,1.80
2015,11,19,04,42,1.80
2015,11,19,04,43,1.80
2015,11,19,04,44,1.70
2015,11,19,04,45,1.70
2015,11,19,04,46,1.70
2015,11,19,04,47,1.70
2015,11,19,04,48,1.70
2015,11,19,04,49,1.70
2015,11,19,04,50,1.70
2015,11,19,04,51,1.70
2015,11,19,04,52,1.70
2015,11,19,04,53,1.70
2015,11,19,04,54,1.70
2015,11,19,04,55,1.70
2015,11,19,04,56,1.70
2015,11,19,04,57,1.70
2015,11,19,04,58,1.70
2015,11,19,04,59,1.70
2015,11,19,05,00,1.70
2015,11,19,05,01,1.70
2015,11,19,05,02,1.70
2015,11,19,05,03,1.70
2015,11,19,05,04,1.70
2015,11,19,05,05,1.70
2015,11,19,05,06,1.70
2015,11,19,05,07,1.70
2015,11,19,05,08,1.70
2015,11,19,05,09,1.70
2015,11,19,05,10,1.70
2015,11,19,05,11,1.80
2015,11,19,05,12,1.70
2015,11,19,05,13,1.70
2015,11,19,05,14,1.70
2015,11,19,05,15,1.80
2015,11,19,05,16,1.80
2015,11,19,05,17,1.80
2015,11,19,05,18,1.70
2015,11,19,05,19,1.70
2015,11,19,05,20,1.70
2015,11,19,05,21,1.70
2015,11,19,05,22,1.70
2015,11,19,05,23,1.70
2015,11,19,05,24,1.70
2015,11,19,05,25,1.60
2015,11,19,05,26,1.60
2015,11,19,05,27,1.60
2015,11,19,05,28,1.60
2015,11,19,05,29,1.50
2015,11,19,05,30,1.50
2015,11,19,05,31,1.40
2015,11,19,05,32,1.40
2015,11,19,05,33,1.40
2015,11,19,05,34,1.50
2015,11,19,05,35,1.50
2015,11,19,05,36,1.50
2015,11,19,05,37,1.50
2015,11,19,05,38,1.50
2015,11,19,05,39,1.50
2015,11,19,05,40,1.50
2015,11,19,05,41,1.40
2015,11,19,05,42,1.40
2015,11,19,05,43,1.40
2015,11,19,05,44,1.40
2015,11,19,05,45,1.40
2015,11,19,05,46,1.40
2015,11,19,05,47,1.40
2015,11,19,05,48,1.30
2015,11,19,05,49,1.30
2015,11,19,05,50,1.30
2015,11,19,05,51,1.30
2015,11,19,05,52,1.30
2015,11,19,05,53,1.30
2015,11,19,05,54,1.20
2015,11,19,05,55,1.20
2015,11,19,05,56,1.20
2015,11,19,05,57,1.20
2015,11,19,05,58,1.20
2015,11,19,05,59,1.20
2015,11,19,06,00,1.20
2015,11,19,06,01,1.20
2015,11,19,06,02,1.20
2015,11,19,06,03,1.20
2015,11,19,06,04,1.10
2015,11,19,06,05,1.10
2015,11,19,06,06,1.10
2015,11,19,06,07,1.00
2015,11,19,06,08,1.00
2015,11,19,06,09,1.00
2015,11,19,06,10,1.00
2015,11,19,06,11,1.00
2015,11,19,06,12,1.00
2015,11,19,06,13,1.00
2015,11,19,06,14,1.00
2015,11,19,06,15,1.10
2015,11,19,06,16,1.00
2015,11,19,06,17,1.00
2015,11,19,06,18,1.00
2015,11,19,06,19,1.00
2015,11,19,06,20,0.90
2015,11,19,06,21,0.90
2015,11,19,06,22,0.90
2015,11,19,06,23,0.90
2015,11,19,06,24,0.90
2015,11,19,06,25,0.90
2015,11,19,06,26,0.90
2015,11,19,06,27,0.90
2015,11,19,06,28,0.90
2015,11,19,06,29,0.90
2015,11,19,06,30,0.90
2015,11,19,06,31,0.90
2015,11,19,06,32,0.90
2015,11,19,06,33,0.90
2015,11,19,06,34,0.90
2015,11,19,06,35,0.90
2015,11,19,06,36,0.80
2015,11,19,06,37,0.80
2015,11,19,06,38,0.80
2015,11,19,06,39,0.80
2015,11,19,06,40,0.80
2015,11,19,06,41,0.80
2015,11,19,06,42,0.80
2015,11,19,06,43,0.80
2015,11,19,06,44,0.80
2015,11,19,06,45,0.80
2015,11,19,06,46,0.80
2015,11,19,06,47,0.80
2015,11,19,06,48,0.80
2015,11,19,06,49,0.80
2015,11,19,06,50,0.80
2015,11,19,06,51,0.80
2015,11,19,06,52,0.80
2015,11,19,06,53,0.80
2015,11,19,06,54,0.80
2015,11,19,06,55,0.80
2015,11,19,06,56,0.80
2015,11,19,06,57,0.80
2015,11,19,06,58,0.80
2015,11,19,06,59,0.80
2015,11,19,07,00,0.80
2015,11,19,07,01,0.80
2015,11,19,07,02,0.80
2015,11,19,07,03,0.80
2015,11,19,07,04,0.80
2015,11,19,07,05,0.80
2015,11,19,07,06,0.70
2015,11,19,07,07,0.70
2015,11,19,07,08,0.70
2015,11,19,07,09,0.70
2015,11,19,07,10,0.70
2015,11,19,07,11,0.70
2015,11,19,07,12,0.70
2015,11,19,07,13,0.70
2015,11,19,07,14,0.70
2015,11,19,07,15,0.70
2015,11,19,07,16,0.70
2015,11,19,07,17,0.70
2015,11,19,07,18,0.70
2015,11,19,07,19,0.70
2015,11,19,07,20,0.70
2015,11,19,07,21,0.60
2015,11,19,07,22,0.60
2015,11,19,07,23,0.60
2015,11,19,07,24,0.60
2015,11,19,07,25,0.70
2015,11,19,07,26,0.60
2015,11,19,07,27,0.60
2015,11,19,07,28,0.60
2015,11,19,07,29,0.60
2015,11,19,07,30,0.60
2015,11,19,07,31,0.60
2015,11,19,07,32,0.60
2015,11,19,07,33,0.60
2015,11,19,07,34,0.60
2015,11,19,07,35,0.60
2015,11,19,07,36,0.60
2015,11,19,07,37,0.60
2015,11,19,07,38,0.60
2015,11,19,07,39,0.60
2015,11,19,07,40,0.70
2015,11,19,07,41,0.70
2015,11,19,07,42,0.70
2015,11,19,07,43,0.70
2015,11,19,07,44,0.70
2015,11,19,07,45,0.70
2015,11,19,07,46,0.70
2015,11,19,07,47,0.70
2015,11,19,07,48,0.70
2015,11,19,07,49,0.70
2015,11,19,07,50,0.70
2015,11,19,07,51,0.70
2015,11,19,07,52,0.70
2015,11,19,07,53,0.70
2015,11,19,07,54,0.70
2015,11,19,07,55,0.70
2015,11,19,07,56,0.70
2015,11,19,07,57,0.70
2015,11,19,07,58,0.70
2015,11,19,07,59,0.70
2015,11,19,08,00,0.70
2015,11,19,08,01,0.70
2015,11,19,08,02,0.70
2015,11,19,08,03,0.70
2015,11,19,08,04,0.70
2015,11,19,08,05,0.70
2015,11,19,08,06,0.80
2015,11,19,08,07,0.80
2015,11,19,08,08,0.80
2015,11,19,08,09,0.80
2015,11,19,08,10,0.80
2015,11,19,08,11,0.80
2015,11,19,08,12,0.90
2015,11,19,08,13,0.90
2015,11,19,08,14,0.90
2015,11,19,08,15,0.90
2015,11,19,08,16,1.00
2015,11,19,08,17,1.00
2015,11,19,08,18,1.00
2015,11,19,08,19,1.00
2015,11,19,08,20,1.00
2015,11,19,08,21,1.00
2015,11,19,08,22,1.10
2015,11,19,08,23,1.10
2015,11,19,08,24,1.10
2015,11,19,08,25,1.10
2015,11,19,08,26,1.10
2015,11,19,08,27,1.10
2015,11,19,08,28,1.10
2015,11,19,08,29,1.10
2015,11,19,08,30,1.10
2015,11,19,08,31,1.10
2015,11,19,08,32,1.10
2015,11,19,08,33,1.10
2015,11,19,08,34,1.10
2015,11,19,08,35,1.10
2015,11,19,08,36,1.10
2015,11,19,08,37,1.10
2015,11,19,08,38,1.10
2015,11,19,08,39,1.10
2015,11,19,08,40,1.20
2015,11,19,08,41,1.20
2015,11,19,08,42,1.20
2015,11,19,08,43,1.20
2015,11,19,08,44,1.20
2015,11,19,08,45,1.20
2015,11,19,08,46,1.30
2015,11,19,08,47,1.30
2015,11,19,08,48,1.30
2015,11,19,08,49,1.30
2015,11,19,08,50,1.30
2015,11,19,08,51,1.30
2015,11,19,08,52,1.40
2015,11,19,08,53,1.40
2015,11,19,08,54,1.40
2015,11,19,08,55,1.40
2015,11,19,08,56,1.50
2015,11,19,08,57,1.50
2015,11,19,08,58,1.60
2015,11,19,08,59,1.60
2015,11,19,09,00,1.60
2015,11,19,09,01,1.60
2015,11,19,09,02,1.70
2015,11,19,09,03,1.70
2015,11,19,09,04,1.70
2015,11,19,09,05,1.80
2015,11,19,09,06,1.80
2015,11,19,09,07,1.90
2015,11,19,09,08,1.90
2015,11,19,09,09,1.90
2015,11,19,09,10,1.90
2015,11,19,09,11,1.90
2015,11,19,09,12,1.90
2015,11,19,09,13,1.90
2015,11,19,09,14,2.00
2015,11,19,09,15,2.00
2015,11,19,09,16,2.00
2015,11,19,09,17,2.10
2015,11,19,09,18,2.10
2015,11,19,09,19,2.20
2015,11,19,09,20,2.20
2015,11,19,09,21,2.20
2015,11,19,09,22,2.20
2015,11,19,09,23,2.30
2015,11,19,09,24,2.30
2015,11,19,09,25,2.30
2015,11,19,09,26,2.30
2015,11,19,09,27,2.40
2015,11,19,09,28,2.40
2015,11,19,09,29,2.40
2015,11,19,09,30,2.50
2015,11,19,09,31,2.50
2015,11,19,09,32,2.60
2015,11,19,09,33,2.60
2015,11,19,09,34,2.70
2015,11,19,09,35,2.70
2015,11,19,09,36,2.70
2015,11,19,09,37,2.70
2015,11,19,09,38,2.80
2015,11,19,09,39,2.80
2015,11,19,09,40,2.90
2015,11,19,09,41,3.00
2015,11,19,09,42,3.00
2015,11,19,09,43,3.10
2015,11,19,09,44,3.10
2015,11,19,09,45,3.20
2015,11,19,09,46,3.20
2015,11,19,09,47,3.30
2015,11,19,09,48,3.30
2015,11,19,09,49,3.30
2015,11,19,09,50,3.40
2015,11,19,09,51,3.40
2015,11,19,09,52,3.50
2015,11,19,09,53,3.60
2015,11,19,09,54,3.70
2015,11,19,09,55,3.70
2015,11,19,09,56,3.80
2015,11,19,09,57,3.80
2015,11,19,09,58,3.70
2015,11,19,09,59,3.70
2015,11,19,10,00,3.70
2015,11,19,10,01,3.70
2015,11,19,10,02,3.70
2015,11,19,10,03,3.80
2015,11,19,10,04,3.80
2015,11,19,10,05,3.80
2015,11,19,10,06,3.80
2015,11,19,10,07,3.80
2015,11,19,10,08,3.90
2015,11,19,10,09,3.90
2015,11,19,10,10,4.00
2015,11,19,10,11,4.00
2015,11,19,10,12,4.10
2015,11,19,10,13,4.20
2015,11,19,10,14,4.20
2015,11,19,10,15,4.30
2015,11,19,10,16,4.40
2015,11,19,10,17,4.50
2015,11,19,10,18,4.60
2015,11,19,10,19,4.70
2015,11,19,10,20,4.80
2015,11,19,10,21,4.90
2015,11,19,10,22,5.00
2015,11,19,10,23,5.10
2015,11,19,10,24,5.20
2015,11,19,10,25,5.20
2015,11,19,10,26,5.30
2015,11,19,10,27,5.50
2015,11,19,10,28,5.60
2015,11,19,10,29,5.60
2015,11,19,10,30,5.70
2015,11,19,10,31,5.70
2015,11,19,10,32,5.80
2015,11,19,10,33,5.80
2015,11,19,10,34,5.80
2015,11,19,10,35,5.80
2015,11,19,10,36,5.80
2015,11,19,10,37,5.90
2015,11,19,10,38,5.90
2015,11,19,10,39,6.00
2015,11,19,10,40,6.00
2015,11,19,10,41,6.00
2015,11,19,10,42,6.00
2015,11,19,10,43,6.10
2015,11,19,10,44,6.00
2015,11,19,10,45,6.00
2015,11,19,10,46,6.00
2015,11,19,10,47,6.00
2015,11,19,10,48,6.00
2015,11,19,10,49,6.00
2015,11,19,10,50,6.10
2015,11,19,10,51,6.10
2015,11,19,10,52,6.10
2015,11,19,10,53,6.10
2015,11,19,10,54,6.10
2015,11,19,10,55,6.10
2015,11,19,10,56,6.10
2015,11,19,10,57,6.10
2015,11,19,10,58,6.10
2015,11,19,10,59,6.10
2015,11,19,11,00,6.20
2015,11,19,11,01,6.20
2015,11,19,11,02,6.30
2015,11,19,11,03,6.30
2015,11,19,11,04,6.30
2015,11,19,11,05,6.40
2015,11,19,11,06,6.40
2015,11,19,11,07,6.40
2015,11,19,11,08,6.50
2015,11,19,11,09,6.50
2015,11,19,11,10,6.50
2015,11,19,11,11,6.60
2015,11,19,11,12,6.60
2015,11,19,11,13,6.60
2015,11,19,11,14,6.60
2015,11,19,11,15,6.60
2015,11,19,11,16,6.60
2015,11,19,11,17,6.60
2015,11,19,11,18,6.60
2015,11,19,11,19,6.50
2015,11,19,11,20,6.50
2015,11,19,11,21,6.50
2015,11,19,11,22,6.50
2015,11,19,11,23,6.50
2015,11,19,11,24,6.50
2015,11,19,11,25,6.60
2015,11,19,11,26,6.60
2015,11,19,11,27,6.60
2015,11,19,11,28,6.70
2015,11,19,11,29,6.70
2015,11,19,11,30,6.70
2015,11,19,11,31,6.70
2015,11,19,11,32,6.80
2015,11,19,11,33,6.80
2015,11,19,11,34,6.80
2015,11,19,11,35,6.90
2015,11,19,11,36,7.00
2015,11,19,11,37,7.00
2015,11,19,11,38,7.00
2015,11,19,11,39,7.10
2015,11,19,11,40,7.10
2015,11,19,11,41,7.10
2015,11,19,11,42,7.20
2015,11,19,11,43,7.20
2015,11,19,11,44,7.20
2015,11,19,11,45,7.20
2015,11,19,11,46,7.20
2015,11,19,11,47,7.20
2015,11,19,11,48,7.20
2015,11,19,11,49,7.20
2015,11,19,11,50,7.20
2015,11,19,11,51,7.30
2015,11,19,11,52,7.30
2015,11,19,11,53,7.30
2015,11,19,11,54,7.40
2015,11,19,11,55,7.40
2015,11,19,11,56,7.40
2015,11,19,11,57,7.40
2015,11,19,11,58,7.40
2015,11,19,11,59,7.40
2015,11,19,12,00,7.30
2015,11,19,12,01,7.30
2015,11,19,12,02,7.30
2015,11,19,12,03,7.30
2015,11,19,12,04,7.30
2015,11,19,12,05,7.30
2015,11,19,12,06,7.30
2015,11,19,12,07,7.30
2015,11,19,12,08,7.20
2015,11,19,12,09,7.30
2015,11,19,12,10,7.30
2015,11,19,12,11,7.30
2015,11,19,12,12,7.30
2015,11,19,12,13,7.30
2015,11,19,12,14,7.30
2015,11,19,12,15,7.30
2015,11,19,12,16,7.30
2015,11,19,12,17,7.30
2015,11,19,12,18,7.30
2015,11,19,12,19,7.30
2015,11,19,12,20,7.30
2015,11,19,12,21,7.30
2015,11,19,12,22,7.30
2015,11,19,12,23,7.30
2015,11,19,12,24,7.30
2015,11,19,12,25,7.30
2015,11,19,12,26,7.30
2015,11,19,12,27,7.30
2015,11,19,12,28,7.30
2015,11,19,12,29,7.30
2015,11,19,12,30,7.30
2015,11,19,12,31,7.30
2015,11,19,12,32,7.30
2015,11,19,12,33,7.30
2015,11,19,12,34,7.30
2015,11,19,12,35,7.30
2015,11,19,12,36,7.30
2015,11,19,12,37,7.30
2015,11,19,12,38,7.40
2015,11,19,12,39,7.40
2015,11,19,12,40,7.40
2015,11,19,12,41,7.40
2015,11,19,12,42,7.40
2015,11,19,12,43,7.40
2015,11,19,12,44,7.40
2015,11,19,12,45,7.40
2015,11,19,12,46,7.40
2015,11,19,12,47,7.50
2015,11,19,12,48,7.50
2015,11,19,12,49,7.50
2015,11,19,12,50,7.50
2015,11,19,12,51,7.50
2015,11,19,12,52,7.50
2015,11,19,12,53,7.50
2015,11,19,12,54,7.50
2015,11,19,12,55,7.50
2015,11,19,12,56,7.50
2015,11,19,12,57,7.50
2015,11,19,12,58,7.40
2015,11,19,12,59,7.40
2015,11,19,13,00,7.40
2015,11,19,13,01,7.40
2015,11,19,13,02,7.40
2015,11,19,13,03,7.50
2015,11,19,13,04,7.50
2015,11,19,13,05,7.50
2015,11,19,13,06,7.60
2015,11,19,13,07,7.60
2015,11,19,13,08,7.60
2015,11,19,13,09,7.60
2015,11,19,13,10,7.60
2015,11,19,13,11,7.70
2015,11,19,13,12,7.70
2015,11,19,13,13,7.70
2015,11,19,13,14,7.70
2015,11,19,13,15,7.70
2015,11,19,13,16,7.70
2015,11,19,13,17,7.70
2015,11,19,13,18,7.60
2015,11,19,13,19,7.60
2015,11,19,13,20,7.60
2015,11,19,13,21,7.60
2015,11,19,13,22,7.60
2015,11,19,13,23,7.60
2015,11,19,13,24,7.60
2015,11,19,13,25,7.70
2015,11,19,13,26,7.70
2015,11,19,13,27,7.70
2015,11,19,13,28,7.80
2015,11,19,13,29,7.80
2015,11,19,13,30,7.90
2015,11,19,13,31,7.90
2015,11,19,13,32,7.90
2015,11,19,13,33,7.90
2015,11,19,13,34,7.90
2015,11,19,13,35,8.00
2015,11,19,13,36,8.00
2015,11,19,13,37,8.10
2015,11,19,13,38,8.10
2015,11,19,13,39,8.10
2015,11,19,13,40,8.10
2015,11,19,13,41,8.10
2015,11,19,13,42,8.00
2015,11,19,13,43,8.00
2015,11,19,13,44,8.00
2015,11,19,13,45,8.00
2015,11,19,13,46,8.10
2015,11,19,13,47,8.10
2015,11,19,13,48,8.10
2015,11,19,13,49,8.10
2015,11,19,13,50,8.10
2015,11,19,13,51,8.10
2015,11,19,13,52,8.10
2015,11,19,13,53,8.10
2015,11,19,13,54,8.10
2015,11,19,13,55,8.10
2015,11,19,13,56,8.20
2015,11,19,13,57,8.20
2015,11,19,13,58,8.20
2015,11,19,13,59,8.20
2015,11,19,14,00,8.30
2015,11,19,14,01,8.30
2015,11,19,14,02,8.30
2015,11,19,14,03,8.40
2015,11,19,14,04,8.40
2015,11,19,14,05,8.40
2015,11,19,14,06,8.40
2015,11,19,14,07,8.40
2015,11,19,14,08,8.40
2015,11,19,14,09,8.40
2015,11,19,14,10,8.40
2015,11,19,14,11,8.40
2015,11,19,14,12,8.30
2015,11,19,14,13,8.30
2015,11,19,14,14,8.30
2015,11,19,14,15,8.30
2015,11,19,14,16,8.30
2015,11,19,14,17,8.30
2015,11,19,14,18,8.30
2015,11,19,14,19,8.30
2015,11,19,14,20,8.30
2015,11,19,14,21,8.30
2015,11,19,14,22,8.30
2015,11,19,14,23,8.30
2015,11,19,14,24,8.30
2015,11,19,14,25,8.30
2015,11,19,14,26,8.30
2015,11,19,14,27,8.30
2015,11,19,14,28,8.30
2015,11,19,14,29,8.30
2015,11,19,14,30,8.30
2015,11,19,14,31,8.30
2015,11,19,14,32,8.30
2015,11,19,14,33,8.30
2015,11,19,14,34,8.30
2015,11,19,14,35,8.40
2015,11,19,14,36,8.40
2015,11,19,14,37,8.50
2015,11,19,14,38,8.50
2015,11,19,14,39,8.50
2015,11,19,14,40,8.50
2015,11,19,14,41,8.50
2015,11,19,14,42,8.50
2015,11,19,14,43,8.50
2015,11,19,14,44,8.50
2015,11,19,14,45,8.50
2015,11,19,14,46,8.60
2015,11,19,14,47,8.60
2015,11,19,14,48,8.70
2015,11,19,14,49,8.70
2015,11,19,14,50,8.70
2015,11,19,14,51,8.70
2015,11,19,14,52,8.70
2015,11,19,14,53,8.70
2015,11,19,14,54,8.70
2015,11,19,14,55,8.70
2015,11,19,14,56,8.70
2015,11,19,14,57,8.70
2015,11,19,14,58,8.60
2015,11,19,14,59,8.60
2015,11,19,15,00,8.60
2015,11,19,15,01,8.60
2015,11,19,15,02,8.70
2015,11,19,15,03,8.70
2015,11,19,15,04,8.70
2015,11,19,15,05,8.80
2015,11,19,15,06,8.80
2015,11,19,15,07,8.90
2015,11,19,15,08,9.00
2015,11,19,15,09,9.00
2015,11,19,15,10,9.10
2015,11,19,15,11,9.10
2015,11,19,15,12,9.10
2015,11,19,15,13,9.00
2015,11,19,15,14,9.00
2015,11,19,15,15,8.90
2015,11,19,15,16,8.80
2015,11,19,15,17,8.70
2015,11,19,15,18,8.70
2015,11,19,15,19,8.60
2015,11,19,15,20,8.50
2015,11,19,15,21,8.50
2015,11,19,15,22,8.40
2015,11,19,15,23,8.40
2015,11,19,15,24,8.30
2015,11,19,15,25,8.30
2015,11,19,15,26,8.20
2015,11,19,15,27,8.20
2015,11,19,15,28,8.20
2015,11,19,15,29,8.10
2015,11,19,15,30,8.10
2015,11,19,15,31,8.10
2015,11,19,15,32,8.10
2015,11,19,15,33,8.00
2015,11,19,15,34,8.00
2015,11,19,15,35,8.00
2015,11,19,15,36,8.00
2015,11,19,15,37,7.90
2015,11,19,15,38,7.90
2015,11,19,15,39,7.90
2015,11,19,15,40,7.90
2015,11,19,15,41,7.90
2015,11,19,15,42,7.90
2015,11,19,15,43,7.90
2015,11,19,15,44,7.80
2015,11,19,15,45,7.80
2015,11,19,15,46,7.80
2015,11,19,15,47,7.80
2015,11,19,15,48,7.80
2015,11,19,15,49,7.80
2015,11,19,15,50,7.80
2015,11,19,15,51,7.70
2015,11,19,15,52,7.70
2015,11,19,15,53,7.70
2015,11,19,15,54,7.70
2015,11,19,15,55,7.70
2015,11,19,15,56,7.60
2015,11,19,15,57,7.60
2015,11,19,15,58,7.60
2015,11,19,15,59,7.50
2015,11,19,16,00,7.50
2015,11,19,16,01,7.50
2015,11,19,16,02,7.40
2015,11,19,16,03,7.40
2015,11,19,16,04,7.40
2015,11,19,16,05,7.40
2015,11,19,16,06,7.30
2015,11,19,16,07,7.30
2015,11,19,16,08,7.30
2015,11,19,16,09,7.30
2015,11,19,16,10,7.30
2015,11,19,16,11,7.30
2015,11,19,16,12,7.30
2015,11,19,16,13,7.30
2015,11,19,16,14,7.20
2015,11,19,16,15,7.20
2015,11,19,16,16,7.20
2015,11,19,16,17,7.20
2015,11,19,16,18,7.20
2015,11,19,16,19,7.10
2015,11,19,16,20,7.10
2015,11,19,16,21,7.10
2015,11,19,16,22,7.00
2015,11,19,16,23,7.00
2015,11,19,16,24,7.00
2015,11,19,16,25,6.90
2015,11,19,16,26,6.90
2015,11,19,16,27,6.90
2015,11,19,16,28,6.80
2015,11,19,16,29,6.80
2015,11,19,16,30,6.80
2015,11,19,16,31,6.80
2015,11,19,16,32,6.70
2015,11,19,16,33,6.70
2015,11,19,16,34,6.70
2015,11,19,16,35,6.60
2015,11,19,16,36,6.60
2015,11,19,16,37,6.50
2015,11,19,16,38,6.50
2015,11,19,16,39,6.40
2015,11,19,16,40,6.40
2015,11,19,16,41,6.30
2015,11,19,16,42,6.30
2015,11,19,16,43,6.30
2015,11,19,16,44,6.30
2015,11,19,16,45,6.20
2015,11,19,16,46,6.20
2015,11,19,16,47,6.20
2015,11,19,16,48,6.10
2015,11,19,16,49,6.10
2015,11,19,16,50,6.10
2015,11,19,16,51,6.10
2015,11,19,16,52,6.00
2015,11,19,16,53,6.00
2015,11,19,16,54,5.90
2015,11,19,16,55,5.90
2015,11,19,16,56,5.90
2015,11,19,16,57,5.80
2015,11,19,16,58,5.80
2015,11,19,16,59,5.80
2015,11,19,17,00,5.70
2015,11,19,17,01,5.70
2015,11,19,17,02,5.70
2015,11,19,17,03,5.60
2015,11,19,17,04,5.60
2015,11,19,17,05,5.60
2015,11,19,17,06,5.50
2015,11,19,17,07,5.50
2015,11,19,17,08,5.40
2015,11,19,17,09,5.40
2015,11,19,17,10,5.40
2015,11,19,17,11,5.40
2015,11,19,17,12,5.30
2015,11,19,17,13,5.30
2015,11,19,17,14,5.30
2015,11,19,17,15,5.20
2015,11,19,17,16,5.20
2015,11,19,17,17,5.20
2015,11,19,17,18,5.20
2015,11,19,17,19,5.10
2015,11,19,17,20,5.10
2015,11,19,17,21,5.10
2015,11,19,17,22,5.10
2015,11,19,17,23,5.00
2015,11,19,17,24,5.00
2015,11,19,17,25,5.00
2015,11,19,17,26,5.00
2015,11,19,17,27,5.00
2015,11,19,17,28,5.00
2015,11,19,17,29,4.90
2015,11,19,17,30,4.90
2015,11,19,17,31,4.90
2015,11,19,17,32,4.90
2015,11,19,17,33,4.90
2015,11,19,17,34,4.80
2015,11,19,17,35,4.80
2015,11,19,17,36,4.80
2015,11,19,17,37,4.80
2015,11,19,17,38,4.70
2015,11,19,17,39,4.70
2015,11,19,17,40,4.70
2015,11,19,17,41,4.60
2015,11,19,17,42,4.60
2015,11,19,17,43,4.60
2015,11,19,17,44,4.50
2015,11,19,17,45,4.50
2015,11,19,17,46,4.40
2015,11,19,17,47,4.40
2015,11,19,17,48,4.40
2015,11,19,17,49,4.30
2015,11,19,17,50,4.30
2015,11,19,17,51,4.30
2015,11,19,17,52,4.20
2015,11,19,17,53,4.20
2015,11,19,17,54,4.20
2015,11,19,17,55,4.10
2015,11,19,17,56,4.10
2015,11,19,17,57,4.10
2015,11,19,17,58,4.10
2015,11,19,17,59,4.00
2015,11,19,18,00,4.00
2015,11,19,18,01,4.00
2015,11,19,18,02,4.00
2015,11,19,18,03,4.00
2015,11,19,18,04,3.90
2015,11,19,18,05,3.90
2015,11,19,18,06,3.90